This is the latest recevied weather packets stored in our database for station/object KI7JYE. If no packets are shown the sender has not sent any weather packets the latest 10 day(s).
| Time | Temp. | Humidity | Pressure | Rain* | Wind** | Luminosity | Snow |
|---|---|---|---|---|---|---|---|
| 1777685569 | 20.56° C | 60% | 1013.2 hPa | 0 mm | - | 125 W/m² | - |
| 1777685266 | 20.56° C | 61% | 1013.2 hPa | 0 mm | - | 114 W/m² | - |
| 1777684964 | 21.11° C | 60% | 1013.1 hPa | 0 mm | - | 110 W/m² | - |
| 1777684661 | 21.67° C | 59% | 1013.2 hPa | 0 mm | - | 117 W/m² | - |
| 1777684356 | 22.22° C | 58% | 1013 hPa | 0 mm | - | 137 W/m² | - |
| 1777684055 | 21.67° C | 57% | 1013 hPa | 0 mm | - | 153 W/m² | - |
| 1777683750 | 22.78° C | 54% | 1013.1 hPa | 0 mm | - | 169 W/m² | - |
| 1777683448 | 22.78° C | 54% | 1013 hPa | 0 mm | - | 171 W/m² | - |
| 1777683146 | 22.78° C | 55% | 1013 hPa | 0 mm | - | 174 W/m² | - |
| 1777682842 | 22.78° C | 56% | 1013 hPa | 0 mm | - | 200 W/m² | - |
| 1777682538 | 22.78° C | 55% | 1013 hPa | 0 mm | - | 172 W/m² | - |
| 1777682236 | 23.33° C | 54% | 1013.1 hPa | 0 mm | - | 201 W/m² | - |
| 1777681934 | 23.89° C | 53% | 1012.8 hPa | 0 mm | - | 188 W/m² | - |
| 1777681629 | 23.89° C | 53% | 1013 hPa | 0 mm | - | 220 W/m² | - |
| 1777681327 | 23.89° C | 53% | 1012.9 hPa | 0 mm | - | 266 W/m² | - |
| 1777681024 | 23.89° C | 53% | 1013 hPa | 0 mm | - | 262 W/m² | - |
| 1777680722 | 23.89° C | 53% | 1013 hPa | 0 mm | - | 264 W/m² | - |
| 1777680419 | 23.89° C | 54% | 1012.9 hPa | 0 mm | - | 342 W/m² | - |
| 1777680117 | 23.89° C | 53% | 1012.9 hPa | 0 mm | - | 196 W/m² | - |
| 1777679812 | 23.89° C | 54% | 1012.8 hPa | 0 mm | - | 278 W/m² | - |
| 1777679508 | 24.44° C | 53% | 1012.7 hPa | 0 mm | - | 356 W/m² | - |
| 1777679204 | 24.44° C | 52% | 1013.1 hPa | 0 mm | - | 289 W/m² | - |
| 1777678902 | 25° C | 51% | 1012.9 hPa | 0 mm | - | 160 W/m² | - |
| 1777678599 | 24.44° C | 51% | 1012.9 hPa | 0 mm | - | 383 W/m² | - |
| 1777678297 | 23.33° C | 54% | 1012.8 hPa | 0 mm | - | 362 W/m² | - |
* Rain latest hour (hover to see other rain measurements)
** Current wind speed in m/s (hover to see current wind gust speed)